Regional Weather Roundup
Issued by NWS

Home | Current Version | Previous Version | Text Only | Print | Product List | Glossary On
Versions: 1 2 3 4 5 6 7 8 9 10 11 12 13 14 15 16 17 18 19 20 21 22 23 24 25 26 27 28 29 30 31 32 33 34 35 36 37 38 39 40 41 42 43 44 45 46 47 48 49 50
000
ASPQ40 PGUM 210712
RWRPQ
WEATHER ROUNDUP FOR THE MARIANAS AND MICRONESIA
NATIONAL WEATHER SERVICE TIYAN GU
500 PM CHST SUN DEC 21 2014

GUZ001>004-210800-
MARIANA ISLANDS-

CITY           SKY/WX    TMP DP  RH WIND       PRES   REMARKS
GUAM AIRPORT   MOSUNNY   86  73  66 E18G26    29.84R HX  93
ANDERSEN AFB   PTSUNNY   82  75  78 E22       29.85R
ROTA AIRPORT   MOSUNNY   82  75  78 E18       29.86R
TINIAN AP      MOSUNNY   84  75  74 E15       29.84S HX  92
SAIPAN AP      MOSUNNY   82  73  74 E17G26    29.85S

$$

PMZ161-210800-
REPUBLIC OF PALAU-

CITY           SKY/WX    TMP DP  RH WIND       PRES   REMARKS
KOROR AP       PTSUNNY   86  75  70 E5        29.74  HX  95
KOROR WSO      MOSUNNY   90  77  66 SE3       29.74R HX 102

$$

PMZ171>174-210800-
FEDERATED STATES OF MICRONESIA-

CITY           SKY/WX    TMP DP  RH WIND       PRES   REMARKS
YAP AIRPORT    PTSUNNY   84  77  79 VRB7      29.73S HX  94
CHUUK AP       CLOUDY    84  77  79 NE12      29.73R HX  94
POHNPEI AP     NOT AVBL
POHNPEI WSO    CLOUDY    84  77  79 NE14      29.76R HX  94
KOSRAE AP      NOT AVBL

$$

PMZ181-210800-
REPUBLIC OF THE MARSHALL ISLANDS-

CITY           SKY/WX    TMP DP  RH WIND       PRES   REMARKS
KWAJALEIN AP   PTCLDY    82  73  74 NE22      29.78R
MAJURO AP      NOT AVBL
MAJURO WSO     MOCLDY    82  77  83 NE17      29.74R HX  91

$$



USA.gov is the U.S. government's official web portal to all federal, state and local government web resources and services.